Grand Canyon, AZ

3:09 PM MST on November 16, 2019 (GMT -0700)
Grand Canyon National Park

Weather History for KGCN - October, 2019

Change the Weather History Date:

Wednesday, October 23, 2019

  Actual Average Record
Temperature  
Mean Temperature 45 °F -  
Max Temperature 64 °F 57 °F 75 °F (2003)
Min Temperature 25 °F 26 °F 12 °F (1996)
Degree Days  
Heating Degree Days 20    
Moisture  
Dew Point 14 °F    
Average Humidity 37    
Maximum Humidity 61    
Minimum Humidity 13    
Precipitation  
Precipitation 0.00 in - - ()
Sea Level Pressure  
Sea Level Pressure 30.10 in    
Wind  
Wind Speed 3 mph (North)    
Max Wind Speed 9 mph    
Max Gust Speed 17 mph    
Visibility 10 miles    
Events      
Averages and records for this station are not official NWS values.
T = Trace of Precipitation, MM = Missing Value Source: NWS Daily Summary

Daily Weather History Graph

Daily Weather History Graph

Search for Another Location

Airport or City:

Astronomy

Oct. 23, 2019 Rise Set
Actual Time 6:42 AM MST 5:42 PM MST
Civil Twilight 6:16 AM MST 6:08 PM MST
Nautical Twilight 5:46 AM MST 6:38 PM MST
Astronomical Twilight 5:16 AM MST 7:08 PM MST
Moon 1:19 AM MST (10/23) 3:23 PM MST (10/23)
Length of Visible Light 11h 52m
Length of Day
11h 00m
Waning Crescent, 25% of the Moon is Illuminated
Oct 23
Waning Crescent
Oct 27
New
Nov 4
First Quarter
Nov 12
Full
Nov 19
Last Quarter

Hourly Weather History & Observations

Time (MST) Temp. Windchill Dew Point Humidity Pressure Visibility Wind Dir Wind Speed Gust Speed Precip Events Conditions
12:54 AM 28.9 °F 22.8 °F 14.0 °F 54% 30.13 in 10.0 mi NE 5.8 mph - N/A   Clear
1:54 AM 28.0 °F - 14.0 °F 56% 30.12 in 10.0 mi Calm Calm - N/A   Clear
2:54 AM 27.0 °F - 14.0 °F 58% 30.11 in 10.0 mi Calm Calm - N/A   Clear
3:54 AM 27.0 °F - 15.1 °F 61% 30.09 in 10.0 mi Calm Calm - N/A   Clear
4:54 AM 26.1 °F - 12.9 °F 58% 30.10 in 10.0 mi Calm Calm - N/A   Clear
5:54 AM 26.1 °F - 14.0 °F 60% 30.14 in 10.0 mi Calm Calm - N/A   Clear
6:54 AM 26.1 °F 21.9 °F 14.0 °F 60% 30.19 in 10.0 mi Variable 3.5 mph - N/A   Clear
7:54 AM 36.0 °F 33.3 °F 18.0 °F 48% 30.19 in 10.0 mi ENE 3.5 mph - N/A   Clear
9:54 AM 60.1 °F - 21.0 °F 22% 30.10 in 10.0 mi Calm Calm - N/A   Clear
10:54 AM 62.1 °F - 21.9 °F 21% 30.07 in 10.0 mi North - - N/A   Clear
11:54 AM 64.0 °F - 18.0 °F 17% 30.08 in 10.0 mi Variable 3.5 mph - N/A   Clear
12:54 PM 64.9 °F - 19.9 °F 18% 30.05 in 10.0 mi NNW 9.2 mph 17.3 mph N/A   Clear
1:54 PM 63.0 °F - 19.0 °F 18% 30.04 in 10.0 mi North 9.2 mph - N/A   Clear
2:54 PM 64.0 °F - 12.0 °F 13% 30.04 in 10.0 mi NW 5.8 mph - N/A   Clear
3:54 PM 64.0 °F - 16.0 °F 16% 30.03 in 10.0 mi NW 5.8 mph - N/A   Clear
4:54 PM 62.1 °F - 16.0 °F 17% 30.04 in 10.0 mi NW 5.8 mph - N/A   Clear
5:54 PM 52.0 °F - 12.0 °F 20% 30.09 in 10.0 mi Calm Calm - N/A   Clear
6:54 PM 42.1 °F - 10.0 °F 27% 30.15 in 10.0 mi Calm Calm - N/A   Clear
7:54 PM 34.0 °F 31.0 °F 6.1 °F 31% 30.14 in 10.0 mi NE 3.5 mph - N/A   Clear
8:54 PM 33.1 °F - 9.0 °F 37% 30.09 in 10.0 mi Calm Calm - N/A   Clear
9:54 PM 27.0 °F - 7.0 °F 43% 30.10 in 10.0 mi Calm Calm - N/A   Clear
10:54 PM 27.0 °F - 7.0 °F 43% 30.09 in 10.0 mi Calm Calm - N/A   Clear
11:54 PM 25.0 °F - 8.1 °F 49% 30.10 in 10.0 mi Calm Calm - N/A   Clear